Index of /20260426/WXO-DD/model_rdps/10km/12/076
Name Last modified Size Description
Parent Directory -
20260426T12Z_MSC_RDPS_AbsoluteVorticity_IsbL-0250_RLatLon0.09_PT076H.grib2 2026-04-26 15:03 629K
20260426T12Z_MSC_RDPS_AbsoluteVorticity_IsbL-0500_RLatLon0.09_PT076H.grib2 2026-04-26 15:03 705K
20260426T12Z_MSC_RDPS_AbsoluteVorticity_IsbL-0700_RLatLon0.09_PT076H.grib2 2026-04-26 15:03 733K
20260426T12Z_MSC_RDPS_AbsoluteVorticity_IsbL-0850_RLatLon0.09_PT076H.grib2 2026-04-26 15:03 774K
20260426T12Z_MSC_RDPS_AirTemp_AGL-120m_RLatLon0.09_PT076H.grib2 2026-04-26 15:03 394K
20260426T12Z_MSC_RDPS_AirTemp_AGL-2m_RLatLon0.09_PT076H.grib2 2026-04-26 15:03 629K
20260426T12Z_MSC_RDPS_AirTemp_AGL-40m_RLatLon0.09_PT076H.grib2 2026-04-26 15:03 404K
20260426T12Z_MSC_RDPS_AirTemp_AGL-80m_RLatLon0.09_PT076H.grib2 2026-04-26 15:03 399K
20260426T12Z_MSC_RDPS_AirTemp_IsbL-0001_RLatLon0.09_PT076H.grib2 2026-04-26 15:03 326K
20260426T12Z_MSC_RDPS_AirTemp_IsbL-0005_RLatLon0.09_PT076H.grib2 2026-04-26 15:03 295K
20260426T12Z_MSC_RDPS_AirTemp_IsbL-0010_RLatLon0.09_PT076H.grib2 2026-04-26 15:03 307K
20260426T12Z_MSC_RDPS_AirTemp_IsbL-0020_RLatLon0.09_PT076H.grib2 2026-04-26 15:03 321K
20260426T12Z_MSC_RDPS_AirTemp_IsbL-0030_RLatLon0.09_PT076H.grib2 2026-04-26 15:03 342K
20260426T12Z_MSC_RDPS_AirTemp_IsbL-0050_RLatLon0.09_PT076H.grib2 2026-04-26 15:03 316K
20260426T12Z_MSC_RDPS_AirTemp_IsbL-0100_RLatLon0.09_PT076H.grib2 2026-04-26 15:03 431K
20260426T12Z_MSC_RDPS_AirTemp_IsbL-0150_RLatLon0.09_PT076H.grib2 2026-04-26 15:03 429K
20260426T12Z_MSC_RDPS_AirTemp_IsbL-0175_RLatLon0.09_PT076H.grib2 2026-04-26 15:03 413K
20260426T12Z_MSC_RDPS_AirTemp_IsbL-0200_RLatLon0.09_PT076H.grib2 2026-04-26 15:03 418K
20260426T12Z_MSC_RDPS_AirTemp_IsbL-0225_RLatLon0.09_PT076H.grib2 2026-04-26 15:03 420K
20260426T12Z_MSC_RDPS_AirTemp_IsbL-0250_RLatLon0.09_PT076H.grib2 2026-04-26 15:03 429K
20260426T12Z_MSC_RDPS_AirTemp_IsbL-0275_RLatLon0.09_PT076H.grib2 2026-04-26 15:03 409K
20260426T12Z_MSC_RDPS_AirTemp_IsbL-0300_RLatLon0.09_PT076H.grib2 2026-04-26 15:03 417K
20260426T12Z_MSC_RDPS_AirTemp_IsbL-0350_RLatLon0.09_PT076H.grib2 2026-04-26 15:03 425K
20260426T12Z_MSC_RDPS_AirTemp_IsbL-0400_RLatLon0.09_PT076H.grib2 2026-04-26 15:03 425K
20260426T12Z_MSC_RDPS_AirTemp_IsbL-0450_RLatLon0.09_PT076H.grib2 2026-04-26 15:03 429K
20260426T12Z_MSC_RDPS_AirTemp_IsbL-0500_RLatLon0.09_PT076H.grib2 2026-04-26 15:03 403K
20260426T12Z_MSC_RDPS_AirTemp_IsbL-0550_RLatLon0.09_PT076H.grib2 2026-04-26 15:03 422K
20260426T12Z_MSC_RDPS_AirTemp_IsbL-0600_RLatLon0.09_PT076H.grib2 2026-04-26 15:03 437K
20260426T12Z_MSC_RDPS_AirTemp_IsbL-0650_RLatLon0.09_PT076H.grib2 2026-04-26 15:03 454K
20260426T12Z_MSC_RDPS_AirTemp_IsbL-0700_RLatLon0.09_PT076H.grib2 2026-04-26 15:03 478K
20260426T12Z_MSC_RDPS_AirTemp_IsbL-0750_RLatLon0.09_PT076H.grib2 2026-04-26 15:03 406K
20260426T12Z_MSC_RDPS_AirTemp_IsbL-0800_RLatLon0.09_PT076H.grib2 2026-04-26 15:03 452K
20260426T12Z_MSC_RDPS_AirTemp_IsbL-0850_RLatLon0.09_PT076H.grib2 2026-04-26 15:03 505K
20260426T12Z_MSC_RDPS_AirTemp_IsbL-0875_RLatLon0.09_PT076H.grib2 2026-04-26 15:03 525K
20260426T12Z_MSC_RDPS_AirTemp_IsbL-0900_RLatLon0.09_PT076H.grib2 2026-04-26 15:03 536K
20260426T12Z_MSC_RDPS_AirTemp_IsbL-0925_RLatLon0.09_PT076H.grib2 2026-04-26 15:03 532K
20260426T12Z_MSC_RDPS_AirTemp_IsbL-0950_RLatLon0.09_PT076H.grib2 2026-04-26 15:03 533K
20260426T12Z_MSC_RDPS_AirTemp_IsbL-0970_RLatLon0.09_PT076H.grib2 2026-04-26 15:03 525K
20260426T12Z_MSC_RDPS_AirTemp_IsbL-0985_RLatLon0.09_PT076H.grib2 2026-04-26 15:03 512K
20260426T12Z_MSC_RDPS_AirTemp_IsbL-1000_RLatLon0.09_PT076H.grib2 2026-04-26 15:03 495K
20260426T12Z_MSC_RDPS_AirTemp_IsbL-1015_RLatLon0.09_PT076H.grib2 2026-04-26 15:03 494K
20260426T12Z_MSC_RDPS_Albedo_Sfc_RLatLon0.09_PT076H.grib2 2026-04-26 15:03 162K
20260426T12Z_MSC_RDPS_CAPE_Sfc_RLatLon0.09_PT076H.grib2 2026-04-26 15:03 1.7M
20260426T12Z_MSC_RDPS_CIN_Sfc_RLatLon0.09_PT076H.grib2 2026-04-26 15:03 1.1M
20260426T12Z_MSC_RDPS_CloudWater_EAtm_RLatLon0.09_PT076H.grib2 2026-04-26 15:03 217K
20260426T12Z_MSC_RDPS_ConvectivePrecip-Accum_Sfc_RLatLon0.09_PT076H.grib2 2026-04-26 15:03 1.3M
20260426T12Z_MSC_RDPS_DewPointDepression_AGL-2m_RLatLon0.09_PT076H.grib2 2026-04-26 15:03 417K
20260426T12Z_MSC_RDPS_DewPointDepression_IsbL-0001_RLatLon0.09_PT076H.grib2 2026-04-26 15:03 193
20260426T12Z_MSC_RDPS_DewPointDepression_IsbL-0005_RLatLon0.09_PT076H.grib2 2026-04-26 15:03 193
20260426T12Z_MSC_RDPS_DewPointDepression_IsbL-0010_RLatLon0.09_PT076H.grib2 2026-04-26 15:03 193
20260426T12Z_MSC_RDPS_DewPointDepression_IsbL-0020_RLatLon0.09_PT076H.grib2 2026-04-26 15:03 193
20260426T12Z_MSC_RDPS_DewPointDepression_IsbL-0030_RLatLon0.09_PT076H.grib2 2026-04-26 15:03 193
20260426T12Z_MSC_RDPS_DewPointDepression_IsbL-0050_RLatLon0.09_PT076H.grib2 2026-04-26 15:03 84K
20260426T12Z_MSC_RDPS_DewPointDepression_IsbL-0100_RLatLon0.09_PT076H.grib2 2026-04-26 15:03 130K
20260426T12Z_MSC_RDPS_DewPointDepression_IsbL-0150_RLatLon0.09_PT076H.grib2 2026-04-26 15:03 147K
20260426T12Z_MSC_RDPS_DewPointDepression_IsbL-0175_RLatLon0.09_PT076H.grib2 2026-04-26 15:03 174K
20260426T12Z_MSC_RDPS_DewPointDepression_IsbL-0200_RLatLon0.09_PT076H.grib2 2026-04-26 15:03 215K
20260426T12Z_MSC_RDPS_DewPointDepression_IsbL-0225_RLatLon0.09_PT076H.grib2 2026-04-26 15:03 264K
20260426T12Z_MSC_RDPS_DewPointDepression_IsbL-0250_RLatLon0.09_PT076H.grib2 2026-04-26 15:03 300K
20260426T12Z_MSC_RDPS_DewPointDepression_IsbL-0275_RLatLon0.09_PT076H.grib2 2026-04-26 15:03 307K
20260426T12Z_MSC_RDPS_DewPointDepression_IsbL-0300_RLatLon0.09_PT076H.grib2 2026-04-26 15:03 323K
20260426T12Z_MSC_RDPS_DewPointDepression_IsbL-0350_RLatLon0.09_PT076H.grib2 2026-04-26 15:03 326K
20260426T12Z_MSC_RDPS_DewPointDepression_IsbL-0400_RLatLon0.09_PT076H.grib2 2026-04-26 15:03 332K
20260426T12Z_MSC_RDPS_DewPointDepression_IsbL-0450_RLatLon0.09_PT076H.grib2 2026-04-26 15:03 337K
20260426T12Z_MSC_RDPS_DewPointDepression_IsbL-0500_RLatLon0.09_PT076H.grib2 2026-04-26 15:03 342K
20260426T12Z_MSC_RDPS_DewPointDepression_IsbL-0550_RLatLon0.09_PT076H.grib2 2026-04-26 15:03 353K
20260426T12Z_MSC_RDPS_DewPointDepression_IsbL-0600_RLatLon0.09_PT076H.grib2 2026-04-26 15:03 364K
20260426T12Z_MSC_RDPS_DewPointDepression_IsbL-0650_RLatLon0.09_PT076H.grib2 2026-04-26 15:03 370K
20260426T12Z_MSC_RDPS_DewPointDepression_IsbL-0700_RLatLon0.09_PT076H.grib2 2026-04-26 15:03 382K
20260426T12Z_MSC_RDPS_DewPointDepression_IsbL-0750_RLatLon0.09_PT076H.grib2 2026-04-26 15:03 408K
20260426T12Z_MSC_RDPS_DewPointDepression_IsbL-0800_RLatLon0.09_PT076H.grib2 2026-04-26 15:03 441K
20260426T12Z_MSC_RDPS_DewPointDepression_IsbL-0850_RLatLon0.09_PT076H.grib2 2026-04-26 15:03 470K
20260426T12Z_MSC_RDPS_DewPointDepression_IsbL-0875_RLatLon0.09_PT076H.grib2 2026-04-26 15:03 472K
20260426T12Z_MSC_RDPS_DewPointDepression_IsbL-0900_RLatLon0.09_PT076H.grib2 2026-04-26 15:03 466K
20260426T12Z_MSC_RDPS_DewPointDepression_IsbL-0925_RLatLon0.09_PT076H.grib2 2026-04-26 15:03 453K
20260426T12Z_MSC_RDPS_DewPointDepression_IsbL-0950_RLatLon0.09_PT076H.grib2 2026-04-26 15:03 446K
20260426T12Z_MSC_RDPS_DewPointDepression_IsbL-0970_RLatLon0.09_PT076H.grib2 2026-04-26 15:03 436K
20260426T12Z_MSC_RDPS_DewPointDepression_IsbL-0985_RLatLon0.09_PT076H.grib2 2026-04-26 15:03 432K
20260426T12Z_MSC_RDPS_DewPointDepression_IsbL-1000_RLatLon0.09_PT076H.grib2 2026-04-26 15:03 428K
20260426T12Z_MSC_RDPS_DewPointDepression_IsbL-1015_RLatLon0.09_PT076H.grib2 2026-04-26 15:03 424K
20260426T12Z_MSC_RDPS_DewPoint_AGL-2m_RLatLon0.09_PT076H.grib2 2026-04-26 15:03 401K
20260426T12Z_MSC_RDPS_DownwardLongwaveRadiationFlux-Accum_Sfc_RLatLon0.09_PT076H.grib2 2026-04-26 15:03 434K
20260426T12Z_MSC_RDPS_DownwardShortwaveRadiationFlux-Accum_NTAtm_RLatLon0.09_PT076H.grib2 2026-04-26 15:03 103K
20260426T12Z_MSC_RDPS_DownwardShortwaveRadiationFlux-Accum_Sfc_RLatLon0.09_PT076H.grib2 2026-04-26 15:03 636K
20260426T12Z_MSC_RDPS_FreezingRain-Accum1h_Sfc_RLatLon0.09_PT076H.grib2 2026-04-26 15:03 21K
20260426T12Z_MSC_RDPS_FreezingRain-Accum_Sfc_RLatLon0.09_PT076H.grib2 2026-04-26 15:03 226K
20260426T12Z_MSC_RDPS_GeopotentialHeight_IsbL-0001_RLatLon0.09_PT076H.grib2 2026-04-26 15:03 319K
20260426T12Z_MSC_RDPS_GeopotentialHeight_IsbL-0005_RLatLon0.09_PT076H.grib2 2026-04-26 15:03 337K
20260426T12Z_MSC_RDPS_GeopotentialHeight_IsbL-0010_RLatLon0.09_PT076H.grib2 2026-04-26 15:03 338K
20260426T12Z_MSC_RDPS_GeopotentialHeight_IsbL-0020_RLatLon0.09_PT076H.grib2 2026-04-26 15:03 305K
20260426T12Z_MSC_RDPS_GeopotentialHeight_IsbL-0030_RLatLon0.09_PT076H.grib2 2026-04-26 15:03 306K
20260426T12Z_MSC_RDPS_GeopotentialHeight_IsbL-0050_RLatLon0.09_PT076H.grib2 2026-04-26 15:03 338K
20260426T12Z_MSC_RDPS_GeopotentialHeight_IsbL-0100_RLatLon0.09_PT076H.grib2 2026-04-26 15:03 285K
20260426T12Z_MSC_RDPS_GeopotentialHeight_IsbL-0150_RLatLon0.09_PT076H.grib2 2026-04-26 15:03 229K
20260426T12Z_MSC_RDPS_GeopotentialHeight_IsbL-0175_RLatLon0.09_PT076H.grib2 2026-04-26 15:03 264K
20260426T12Z_MSC_RDPS_GeopotentialHeight_IsbL-0200_RLatLon0.09_PT076H.grib2 2026-04-26 15:03 266K
20260426T12Z_MSC_RDPS_GeopotentialHeight_IsbL-0225_RLatLon0.09_PT076H.grib2 2026-04-26 15:03 267K
20260426T12Z_MSC_RDPS_GeopotentialHeight_IsbL-0250_RLatLon0.09_PT076H.grib2 2026-04-26 15:03 267K
20260426T12Z_MSC_RDPS_GeopotentialHeight_IsbL-0275_RLatLon0.09_PT076H.grib2 2026-04-26 15:03 266K
20260426T12Z_MSC_RDPS_GeopotentialHeight_IsbL-0300_RLatLon0.09_PT076H.grib2 2026-04-26 15:03 265K
20260426T12Z_MSC_RDPS_GeopotentialHeight_IsbL-0350_RLatLon0.09_PT076H.grib2 2026-04-26 15:03 231K
20260426T12Z_MSC_RDPS_GeopotentialHeight_IsbL-0400_RLatLon0.09_PT076H.grib2 2026-04-26 15:03 227K
20260426T12Z_MSC_RDPS_GeopotentialHeight_IsbL-0450_RLatLon0.09_PT076H.grib2 2026-04-26 15:03 295K
20260426T12Z_MSC_RDPS_GeopotentialHeight_IsbL-0500_RLatLon0.09_PT076H.grib2 2026-04-26 15:03 290K
20260426T12Z_MSC_RDPS_GeopotentialHeight_IsbL-0550_RLatLon0.09_PT076H.grib2 2026-04-26 15:03 287K
20260426T12Z_MSC_RDPS_GeopotentialHeight_IsbL-0600_RLatLon0.09_PT076H.grib2 2026-04-26 15:03 284K
20260426T12Z_MSC_RDPS_GeopotentialHeight_IsbL-0650_RLatLon0.09_PT076H.grib2 2026-04-26 15:03 253K
20260426T12Z_MSC_RDPS_GeopotentialHeight_IsbL-0700_RLatLon0.09_PT076H.grib2 2026-04-26 15:03 332K
20260426T12Z_MSC_RDPS_GeopotentialHeight_IsbL-0750_RLatLon0.09_PT076H.grib2 2026-04-26 15:03 335K
20260426T12Z_MSC_RDPS_GeopotentialHeight_IsbL-0800_RLatLon0.09_PT076H.grib2 2026-04-26 15:03 345K
20260426T12Z_MSC_RDPS_GeopotentialHeight_IsbL-0850_RLatLon0.09_PT076H.grib2 2026-04-26 15:03 357K
20260426T12Z_MSC_RDPS_GeopotentialHeight_IsbL-0875_RLatLon0.09_PT076H.grib2 2026-04-26 15:03 361K
20260426T12Z_MSC_RDPS_GeopotentialHeight_IsbL-0900_RLatLon0.09_PT076H.grib2 2026-04-26 15:03 365K
20260426T12Z_MSC_RDPS_GeopotentialHeight_IsbL-0925_RLatLon0.09_PT076H.grib2 2026-04-26 15:03 366K
20260426T12Z_MSC_RDPS_GeopotentialHeight_IsbL-0950_RLatLon0.09_PT076H.grib2 2026-04-26 15:03 370K
20260426T12Z_MSC_RDPS_GeopotentialHeight_IsbL-0970_RLatLon0.09_PT076H.grib2 2026-04-26 15:03 379K
20260426T12Z_MSC_RDPS_GeopotentialHeight_IsbL-0985_RLatLon0.09_PT076H.grib2 2026-04-26 15:03 389K
20260426T12Z_MSC_RDPS_GeopotentialHeight_IsbL-1000_RLatLon0.09_PT076H.grib2 2026-04-26 15:03 401K
20260426T12Z_MSC_RDPS_GeopotentialHeight_IsbL-1015_RLatLon0.09_PT076H.grib2 2026-04-26 15:03 416K
20260426T12Z_MSC_RDPS_Humidex_Sfc_RLatLon0.09_PT076H.grib2 2026-04-26 15:03 2.4M
20260426T12Z_MSC_RDPS_IcePellets-Accum1h_Sfc_RLatLon0.09_PT076H.grib2 2026-04-26 15:03 5.6K
20260426T12Z_MSC_RDPS_IcePellets-Accum_Sfc_RLatLon0.09_PT076H.grib2 2026-04-26 15:03 41K
20260426T12Z_MSC_RDPS_KIndex_Sfc_RLatLon0.09_PT076H.grib2 2026-04-26 15:03 2.5M
20260426T12Z_MSC_RDPS_LatentHeatNetFlux_Sfc_RLatLon0.09_PT076H.grib2 2026-04-26 15:03 384K
20260426T12Z_MSC_RDPS_LiftedIndex-MU-VT_IsbL-0500_RLatLon0.09_PT076H.grib2 2026-04-26 15:03 2.4M
20260426T12Z_MSC_RDPS_NetLongwaveRadiationFlux-Accum_Sfc_RLatLon0.09_PT076H.grib2 2026-04-26 15:03 482K
20260426T12Z_MSC_RDPS_NetShortwaveRadiationFlux-Accum_Sfc_RLatLon0.09_PT076H.grib2 2026-04-26 15:03 640K
20260426T12Z_MSC_RDPS_PlanetaryBoundaryLayerHeight_Sfc_RLatLon0.09_PT076H.grib2 2026-04-26 15:03 1.2M
20260426T12Z_MSC_RDPS_Precip-Accum1h_Sfc_RLatLon0.09_PT076H.grib2 2026-04-26 15:03 1.2M
20260426T12Z_MSC_RDPS_Precip-Accum_Sfc_RLatLon0.09_PT076H.grib2 2026-04-26 15:03 2.1M
20260426T12Z_MSC_RDPS_PrecipRate_Sfc_RLatLon0.09_PT076H.grib2 2026-04-26 15:03 165K
20260426T12Z_MSC_RDPS_PrecipType-Instant_Sfc_RLatLon0.09_PT076H.grib2 2026-04-26 15:03 540K
20260426T12Z_MSC_RDPS_Pressure-Trend3h_Sfc_RLatLon0.09_PT076H.grib2 2026-04-26 15:03 1.2M
20260426T12Z_MSC_RDPS_Pressure_MSL_RLatLon0.09_PT076H.grib2 2026-04-26 15:03 299K
20260426T12Z_MSC_RDPS_Pressure_PVU-1.5_RLatLon0.09_PT076H.grib2 2026-04-26 15:03 2.3M
20260426T12Z_MSC_RDPS_Pressure_PVU-1_RLatLon0.09_PT076H.grib2 2026-04-26 15:03 2.4M
20260426T12Z_MSC_RDPS_Pressure_PVU-2_RLatLon0.09_PT076H.grib2 2026-04-26 15:03 2.4M
20260426T12Z_MSC_RDPS_Pressure_Sfc_RLatLon0.09_PT076H.grib2 2026-04-26 15:03 501K
20260426T12Z_MSC_RDPS_RadiativeTemp_Sfc_RLatLon0.09_PT076H.grib2 2026-04-26 15:03 318K
20260426T12Z_MSC_RDPS_Rain-Accum1h_Sfc_RLatLon0.09_PT076H.grib2 2026-04-26 15:03 493K
20260426T12Z_MSC_RDPS_Rain-Accum_Sfc_RLatLon0.09_PT076H.grib2 2026-04-26 15:03 1.6M
20260426T12Z_MSC_RDPS_RelativeHumidity_AGL-2m_RLatLon0.09_PT076H.grib2 2026-04-26 15:03 1.0M
20260426T12Z_MSC_RDPS_RelativeHumidity_IsbL-0010_RLatLon0.09_PT076H.grib2 2026-04-26 15:03 615K
20260426T12Z_MSC_RDPS_RelativeHumidity_IsbL-0020_RLatLon0.09_PT076H.grib2 2026-04-26 15:03 642K
20260426T12Z_MSC_RDPS_RelativeHumidity_IsbL-0030_RLatLon0.09_PT076H.grib2 2026-04-26 15:03 538K
20260426T12Z_MSC_RDPS_RelativeHumidity_IsbL-0050_RLatLon0.09_PT076H.grib2 2026-04-26 15:03 324K
20260426T12Z_MSC_RDPS_RelativeHumidity_IsbL-0100_RLatLon0.09_PT076H.grib2 2026-04-26 15:03 283K
20260426T12Z_MSC_RDPS_RelativeHumidity_IsbL-0150_RLatLon0.09_PT076H.grib2 2026-04-26 15:03 412K
20260426T12Z_MSC_RDPS_RelativeHumidity_IsbL-0175_RLatLon0.09_PT076H.grib2 2026-04-26 15:03 481K
20260426T12Z_MSC_RDPS_RelativeHumidity_IsbL-0200_RLatLon0.09_PT076H.grib2 2026-04-26 15:03 556K
20260426T12Z_MSC_RDPS_RelativeHumidity_IsbL-0225_RLatLon0.09_PT076H.grib2 2026-04-26 15:03 625K
20260426T12Z_MSC_RDPS_RelativeHumidity_IsbL-0250_RLatLon0.09_PT076H.grib2 2026-04-26 15:03 695K
20260426T12Z_MSC_RDPS_RelativeHumidity_IsbL-0275_RLatLon0.09_PT076H.grib2 2026-04-26 15:03 724K
20260426T12Z_MSC_RDPS_RelativeHumidity_IsbL-0300_RLatLon0.09_PT076H.grib2 2026-04-26 15:03 764K
20260426T12Z_MSC_RDPS_RelativeHumidity_IsbL-0350_RLatLon0.09_PT076H.grib2 2026-04-26 15:03 776K
20260426T12Z_MSC_RDPS_RelativeHumidity_IsbL-0400_RLatLon0.09_PT076H.grib2 2026-04-26 15:03 784K
20260426T12Z_MSC_RDPS_RelativeHumidity_IsbL-0450_RLatLon0.09_PT076H.grib2 2026-04-26 15:03 785K
20260426T12Z_MSC_RDPS_RelativeHumidity_IsbL-0500_RLatLon0.09_PT076H.grib2 2026-04-26 15:03 790K
20260426T12Z_MSC_RDPS_RelativeHumidity_IsbL-0550_RLatLon0.09_PT076H.grib2 2026-04-26 15:03 805K
20260426T12Z_MSC_RDPS_RelativeHumidity_IsbL-0600_RLatLon0.09_PT076H.grib2 2026-04-26 15:03 822K
20260426T12Z_MSC_RDPS_RelativeHumidity_IsbL-0650_RLatLon0.09_PT076H.grib2 2026-04-26 15:03 834K
20260426T12Z_MSC_RDPS_RelativeHumidity_IsbL-0700_RLatLon0.09_PT076H.grib2 2026-04-26 15:03 865K
20260426T12Z_MSC_RDPS_RelativeHumidity_IsbL-0750_RLatLon0.09_PT076H.grib2 2026-04-26 15:03 913K
20260426T12Z_MSC_RDPS_RelativeHumidity_IsbL-0800_RLatLon0.09_PT076H.grib2 2026-04-26 15:03 1.0M
20260426T12Z_MSC_RDPS_RelativeHumidity_IsbL-0850_RLatLon0.09_PT076H.grib2 2026-04-26 15:03 1.0M
20260426T12Z_MSC_RDPS_RelativeHumidity_IsbL-0875_RLatLon0.09_PT076H.grib2 2026-04-26 15:03 1.1M
20260426T12Z_MSC_RDPS_RelativeHumidity_IsbL-0900_RLatLon0.09_PT076H.grib2 2026-04-26 15:03 1.1M
20260426T12Z_MSC_RDPS_RelativeHumidity_IsbL-0925_RLatLon0.09_PT076H.grib2 2026-04-26 15:03 1.1M
20260426T12Z_MSC_RDPS_RelativeHumidity_IsbL-0950_RLatLon0.09_PT076H.grib2 2026-04-26 15:03 1.1M
20260426T12Z_MSC_RDPS_RelativeHumidity_IsbL-0970_RLatLon0.09_PT076H.grib2 2026-04-26 15:03 1.0M
20260426T12Z_MSC_RDPS_RelativeHumidity_IsbL-0985_RLatLon0.09_PT076H.grib2 2026-04-26 15:03 1.0M
20260426T12Z_MSC_RDPS_RelativeHumidity_IsbL-1000_RLatLon0.09_PT076H.grib2 2026-04-26 15:03 1.0M
20260426T12Z_MSC_RDPS_RelativeHumidity_IsbL-1015_RLatLon0.09_PT076H.grib2 2026-04-26 15:03 1.0M
20260426T12Z_MSC_RDPS_Runoff-Accum_Sfc_RLatLon0.09_PT076H.grib2 2026-04-26 15:03 61K
20260426T12Z_MSC_RDPS_SWEATIndex_Sfc_RLatLon0.09_PT076H.grib2 2026-04-26 15:03 2.4M
20260426T12Z_MSC_RDPS_SeeingIndex_EAtm_RLatLon0.09_PT076H.grib2 2026-04-26 15:03 1.0M
20260426T12Z_MSC_RDPS_SensibleHeatNetFlux_Sfc_RLatLon0.09_PT076H.grib2 2026-04-26 15:03 360K
20260426T12Z_MSC_RDPS_ShowalterIndex_IsbL-0500_RLatLon0.09_PT076H.grib2 2026-04-26 15:03 2.6M
20260426T12Z_MSC_RDPS_SkyTransparencyIndex_EAtm_RLatLon0.09_PT076H.grib2 2026-04-26 15:03 676K
20260426T12Z_MSC_RDPS_Snow-Accum1h_Sfc_RLatLon0.09_PT076H.grib2 2026-04-26 15:03 466K
20260426T12Z_MSC_RDPS_Snow-Accum_Sfc_RLatLon0.09_PT076H.grib2 2026-04-26 15:03 871K
20260426T12Z_MSC_RDPS_SnowDensity_Sfc_RLatLon0.09_PT076H.grib2 2026-04-26 15:03 189K
20260426T12Z_MSC_RDPS_SnowDepth_Sfc_RLatLon0.09_PT076H.grib2 2026-04-26 15:03 706K
20260426T12Z_MSC_RDPS_SoilTemp_DBS-0to10cm_RLatLon0.09_PT076H.grib2 2026-04-26 15:03 239K
20260426T12Z_MSC_RDPS_SoilTemp_Sfc_RLatLon0.09_PT076H.grib2 2026-04-26 15:03 291K
20260426T12Z_MSC_RDPS_SoilVolumetricIceContent_Sfc_RLatLon0.09_PT076H.grib2 2026-04-26 15:03 167K
20260426T12Z_MSC_RDPS_SoilVolumetricWaterContent_DBS-0to10cm_RLatLon0.09_PT076H.grib2 2026-04-26 15:03 266K
20260426T12Z_MSC_RDPS_SoilVolumetricWaterContent_DBS-0to1cm_RLatLon0.09_PT076H.grib2 2026-04-26 15:03 340K
20260426T12Z_MSC_RDPS_SpecificHumidity_AGL-120m_RLatLon0.09_PT076H.grib2 2026-04-26 15:03 493K
20260426T12Z_MSC_RDPS_SpecificHumidity_AGL-2m_RLatLon0.09_PT076H.grib2 2026-04-26 15:03 660K
20260426T12Z_MSC_RDPS_SpecificHumidity_AGL-40m_RLatLon0.09_PT076H.grib2 2026-04-26 15:03 498K
20260426T12Z_MSC_RDPS_SpecificHumidity_AGL-80m_RLatLon0.09_PT076H.grib2 2026-04-26 15:03 495K
20260426T12Z_MSC_RDPS_SpecificHumidity_IsbL-0001_RLatLon0.09_PT076H.grib2 2026-04-26 15:03 349K
20260426T12Z_MSC_RDPS_SpecificHumidity_IsbL-0005_RLatLon0.09_PT076H.grib2 2026-04-26 15:03 346K
20260426T12Z_MSC_RDPS_SpecificHumidity_IsbL-0010_RLatLon0.09_PT076H.grib2 2026-04-26 15:03 385K
20260426T12Z_MSC_RDPS_SpecificHumidity_IsbL-0020_RLatLon0.09_PT076H.grib2 2026-04-26 15:03 486K
20260426T12Z_MSC_RDPS_SpecificHumidity_IsbL-0030_RLatLon0.09_PT076H.grib2 2026-04-26 15:03 436K
20260426T12Z_MSC_RDPS_SpecificHumidity_IsbL-0050_RLatLon0.09_PT076H.grib2 2026-04-26 15:03 445K
20260426T12Z_MSC_RDPS_SpecificHumidity_IsbL-0100_RLatLon0.09_PT076H.grib2 2026-04-26 15:03 446K
20260426T12Z_MSC_RDPS_SpecificHumidity_IsbL-0150_RLatLon0.09_PT076H.grib2 2026-04-26 15:03 476K
20260426T12Z_MSC_RDPS_SpecificHumidity_IsbL-0175_RLatLon0.09_PT076H.grib2 2026-04-26 15:03 435K
20260426T12Z_MSC_RDPS_SpecificHumidity_IsbL-0200_RLatLon0.09_PT076H.grib2 2026-04-26 15:03 452K
20260426T12Z_MSC_RDPS_SpecificHumidity_IsbL-0225_RLatLon0.09_PT076H.grib2 2026-04-26 15:03 458K
20260426T12Z_MSC_RDPS_SpecificHumidity_IsbL-0250_RLatLon0.09_PT076H.grib2 2026-04-26 15:03 562K
20260426T12Z_MSC_RDPS_SpecificHumidity_IsbL-0275_RLatLon0.09_PT076H.grib2 2026-04-26 15:03 477K
20260426T12Z_MSC_RDPS_SpecificHumidity_IsbL-0300_RLatLon0.09_PT076H.grib2 2026-04-26 15:03 446K
20260426T12Z_MSC_RDPS_SpecificHumidity_IsbL-0350_RLatLon0.09_PT076H.grib2 2026-04-26 15:03 532K
20260426T12Z_MSC_RDPS_SpecificHumidity_IsbL-0400_RLatLon0.09_PT076H.grib2 2026-04-26 15:03 508K
20260426T12Z_MSC_RDPS_SpecificHumidity_IsbL-0450_RLatLon0.09_PT076H.grib2 2026-04-26 15:03 558K
20260426T12Z_MSC_RDPS_SpecificHumidity_IsbL-0500_RLatLon0.09_PT076H.grib2 2026-04-26 15:03 494K
20260426T12Z_MSC_RDPS_SpecificHumidity_IsbL-0550_RLatLon0.09_PT076H.grib2 2026-04-26 15:03 549K
20260426T12Z_MSC_RDPS_SpecificHumidity_IsbL-0600_RLatLon0.09_PT076H.grib2 2026-04-26 15:03 619K
20260426T12Z_MSC_RDPS_SpecificHumidity_IsbL-0650_RLatLon0.09_PT076H.grib2 2026-04-26 15:03 537K
20260426T12Z_MSC_RDPS_SpecificHumidity_IsbL-0700_RLatLon0.09_PT076H.grib2 2026-04-26 15:03 580K
20260426T12Z_MSC_RDPS_SpecificHumidity_IsbL-0750_RLatLon0.09_PT076H.grib2 2026-04-26 15:03 651K
20260426T12Z_MSC_RDPS_SpecificHumidity_IsbL-0800_RLatLon0.09_PT076H.grib2 2026-04-26 15:03 720K
20260426T12Z_MSC_RDPS_SpecificHumidity_IsbL-0850_RLatLon0.09_PT076H.grib2 2026-04-26 15:03 796K
20260426T12Z_MSC_RDPS_SpecificHumidity_IsbL-0875_RLatLon0.09_PT076H.grib2 2026-04-26 15:03 824K
20260426T12Z_MSC_RDPS_SpecificHumidity_IsbL-0900_RLatLon0.09_PT076H.grib2 2026-04-26 15:03 839K
20260426T12Z_MSC_RDPS_SpecificHumidity_IsbL-0925_RLatLon0.09_PT076H.grib2 2026-04-26 15:03 842K
20260426T12Z_MSC_RDPS_SpecificHumidity_IsbL-0950_RLatLon0.09_PT076H.grib2 2026-04-26 15:03 701K
20260426T12Z_MSC_RDPS_SpecificHumidity_IsbL-0970_RLatLon0.09_PT076H.grib2 2026-04-26 15:03 690K
20260426T12Z_MSC_RDPS_SpecificHumidity_IsbL-0985_RLatLon0.09_PT076H.grib2 2026-04-26 15:03 684K
20260426T12Z_MSC_RDPS_SpecificHumidity_IsbL-1000_RLatLon0.09_PT076H.grib2 2026-04-26 15:03 679K
20260426T12Z_MSC_RDPS_SpecificHumidity_IsbL-1015_RLatLon0.09_PT076H.grib2 2026-04-26 15:03 671K
20260426T12Z_MSC_RDPS_SpecificHumidity_Sfc_RLatLon0.09_PT076H.grib2 2026-04-26 15:03 328K
20260426T12Z_MSC_RDPS_StormRelativeHelicity_EtaL-10000_RLatLon0.09_PT076H.grib2 2026-04-26 15:03 1.1M
20260426T12Z_MSC_RDPS_StormSeverityIndex_EtaL-10000_RLatLon0.09_PT076H.grib2 2026-04-26 15:03 1.1M
20260426T12Z_MSC_RDPS_Thickness_IsbL-0850to0700_RLatLon0.09_PT076H.grib2 2026-04-26 15:03 176K
20260426T12Z_MSC_RDPS_Thickness_IsbL-1000to0500_RLatLon0.09_PT076H.grib2 2026-04-26 15:03 202K
20260426T12Z_MSC_RDPS_Thickness_IsbL-1000to0850_RLatLon0.09_PT076H.grib2 2026-04-26 15:03 189K
20260426T12Z_MSC_RDPS_TotalCloudCover_Sfc_RLatLon0.09_PT076H.grib2 2026-04-26 15:03 645K
20260426T12Z_MSC_RDPS_TotalTotalsIndex_Sfc_RLatLon0.09_PT076H.grib2 2026-04-26 15:03 2.4M
20260426T12Z_MSC_RDPS_UVIndex-ClearSky_Sfc_RLatLon0.09_PT076H.grib2 2026-04-26 15:03 208K
20260426T12Z_MSC_RDPS_UVIndex_Sfc_RLatLon0.09_PT076H.grib2 2026-04-26 15:03 468K
20260426T12Z_MSC_RDPS_UpwardLongwaveRadiationFlux_NTAtm_RLatLon0.09_PT076H.grib2 2026-04-26 15:03 492K
20260426T12Z_MSC_RDPS_UpwardShortwaveRadiationFlux_NTAtm_RLatLon0.09_PT076H.grib2 2026-04-26 15:03 507K
20260426T12Z_MSC_RDPS_VerticalVelocity_IsbL-0250_RLatLon0.09_PT076H.grib2 2026-04-26 15:03 436K
20260426T12Z_MSC_RDPS_VerticalVelocity_IsbL-0500_RLatLon0.09_PT076H.grib2 2026-04-26 15:03 677K
20260426T12Z_MSC_RDPS_VerticalVelocity_IsbL-0700_RLatLon0.09_PT076H.grib2 2026-04-26 15:03 584K
20260426T12Z_MSC_RDPS_VerticalVelocity_IsbL-0850_RLatLon0.09_PT076H.grib2 2026-04-26 15:03 685K
20260426T12Z_MSC_RDPS_VerticalWindShear_EtaL-6500_RLatLon0.09_PT076H.grib2 2026-04-26 15:03 1.1M
20260426T12Z_MSC_RDPS_WindChill_Sfc_RLatLon0.09_PT076H.grib2 2026-04-26 15:03 1.1M
20260426T12Z_MSC_RDPS_WindDir_AGL-10m_RLatLon0.09_PT076H.grib2 2026-04-26 15:03 970K
20260426T12Z_MSC_RDPS_WindDir_AGL-120m_RLatLon0.09_PT076H.grib2 2026-04-26 15:03 616K
20260426T12Z_MSC_RDPS_WindDir_AGL-40m_RLatLon0.09_PT076H.grib2 2026-04-26 15:03 639K
20260426T12Z_MSC_RDPS_WindDir_AGL-80m_RLatLon0.09_PT076H.grib2 2026-04-26 15:03 626K
20260426T12Z_MSC_RDPS_WindDir_IsbL-0001_RLatLon0.09_PT076H.grib2 2026-04-26 15:03 303K
20260426T12Z_MSC_RDPS_WindDir_IsbL-0005_RLatLon0.09_PT076H.grib2 2026-04-26 15:03 362K
20260426T12Z_MSC_RDPS_WindDir_IsbL-0010_RLatLon0.09_PT076H.grib2 2026-04-26 15:03 375K
20260426T12Z_MSC_RDPS_WindDir_IsbL-0020_RLatLon0.09_PT076H.grib2 2026-04-26 15:03 400K
20260426T12Z_MSC_RDPS_WindDir_IsbL-0030_RLatLon0.09_PT076H.grib2 2026-04-26 15:03 413K
20260426T12Z_MSC_RDPS_WindDir_IsbL-0050_RLatLon0.09_PT076H.grib2 2026-04-26 15:03 436K
20260426T12Z_MSC_RDPS_WindDir_IsbL-0100_RLatLon0.09_PT076H.grib2 2026-04-26 15:03 420K
20260426T12Z_MSC_RDPS_WindDir_IsbL-0150_RLatLon0.09_PT076H.grib2 2026-04-26 15:03 412K
20260426T12Z_MSC_RDPS_WindDir_IsbL-0175_RLatLon0.09_PT076H.grib2 2026-04-26 15:03 429K
20260426T12Z_MSC_RDPS_WindDir_IsbL-0200_RLatLon0.09_PT076H.grib2 2026-04-26 15:03 443K
20260426T12Z_MSC_RDPS_WindDir_IsbL-0225_RLatLon0.09_PT076H.grib2 2026-04-26 15:03 446K
20260426T12Z_MSC_RDPS_WindDir_IsbL-0250_RLatLon0.09_PT076H.grib2 2026-04-26 15:03 450K
20260426T12Z_MSC_RDPS_WindDir_IsbL-0275_RLatLon0.09_PT076H.grib2 2026-04-26 15:03 474K
20260426T12Z_MSC_RDPS_WindDir_IsbL-0300_RLatLon0.09_PT076H.grib2 2026-04-26 15:03 476K
20260426T12Z_MSC_RDPS_WindDir_IsbL-0350_RLatLon0.09_PT076H.grib2 2026-04-26 15:03 487K
20260426T12Z_MSC_RDPS_WindDir_IsbL-0400_RLatLon0.09_PT076H.grib2 2026-04-26 15:03 505K
20260426T12Z_MSC_RDPS_WindDir_IsbL-0450_RLatLon0.09_PT076H.grib2 2026-04-26 15:03 523K
20260426T12Z_MSC_RDPS_WindDir_IsbL-0500_RLatLon0.09_PT076H.grib2 2026-04-26 15:03 537K
20260426T12Z_MSC_RDPS_WindDir_IsbL-0550_RLatLon0.09_PT076H.grib2 2026-04-26 15:03 549K
20260426T12Z_MSC_RDPS_WindDir_IsbL-0600_RLatLon0.09_PT076H.grib2 2026-04-26 15:03 575K
20260426T12Z_MSC_RDPS_WindDir_IsbL-0650_RLatLon0.09_PT076H.grib2 2026-04-26 15:03 614K
20260426T12Z_MSC_RDPS_WindDir_IsbL-0700_RLatLon0.09_PT076H.grib2 2026-04-26 15:03 654K
20260426T12Z_MSC_RDPS_WindDir_IsbL-0750_RLatLon0.09_PT076H.grib2 2026-04-26 15:03 703K
20260426T12Z_MSC_RDPS_WindDir_IsbL-0800_RLatLon0.09_PT076H.grib2 2026-04-26 15:03 767K
20260426T12Z_MSC_RDPS_WindDir_IsbL-0850_RLatLon0.09_PT076H.grib2 2026-04-26 15:03 856K
20260426T12Z_MSC_RDPS_WindDir_IsbL-0875_RLatLon0.09_PT076H.grib2 2026-04-26 15:03 886K
20260426T12Z_MSC_RDPS_WindDir_IsbL-0900_RLatLon0.09_PT076H.grib2 2026-04-26 15:03 901K
20260426T12Z_MSC_RDPS_WindDir_IsbL-0925_RLatLon0.09_PT076H.grib2 2026-04-26 15:03 912K
20260426T12Z_MSC_RDPS_WindDir_IsbL-0950_RLatLon0.09_PT076H.grib2 2026-04-26 15:03 913K
20260426T12Z_MSC_RDPS_WindDir_IsbL-0970_RLatLon0.09_PT076H.grib2 2026-04-26 15:03 921K
20260426T12Z_MSC_RDPS_WindDir_IsbL-0985_RLatLon0.09_PT076H.grib2 2026-04-26 15:03 929K
20260426T12Z_MSC_RDPS_WindDir_IsbL-1000_RLatLon0.09_PT076H.grib2 2026-04-26 15:03 944K
20260426T12Z_MSC_RDPS_WindDir_IsbL-1015_RLatLon0.09_PT076H.grib2 2026-04-26 15:03 961K
20260426T12Z_MSC_RDPS_WindGust-Max_AGL-10m_RLatLon0.09_PT076H.grib2 2026-04-26 15:03 1.0M
20260426T12Z_MSC_RDPS_WindGust-Min_AGL-10m_RLatLon0.09_PT076H.grib2 2026-04-26 15:03 1.0M
20260426T12Z_MSC_RDPS_WindGust_AGL-10m_RLatLon0.09_PT076H.grib2 2026-04-26 15:03 1.0M
20260426T12Z_MSC_RDPS_WindSpeed_AGL-10m_RLatLon0.09_PT076H.grib2 2026-04-26 15:03 835K
20260426T12Z_MSC_RDPS_WindSpeed_AGL-120m_RLatLon0.09_PT076H.grib2 2026-04-26 15:03 544K
20260426T12Z_MSC_RDPS_WindSpeed_AGL-40m_RLatLon0.09_PT076H.grib2 2026-04-26 15:03 534K
20260426T12Z_MSC_RDPS_WindSpeed_AGL-80m_RLatLon0.09_PT076H.grib2 2026-04-26 15:03 544K
20260426T12Z_MSC_RDPS_WindSpeed_IsbL-0001_RLatLon0.09_PT076H.grib2 2026-04-26 15:03 340K
20260426T12Z_MSC_RDPS_WindSpeed_IsbL-0005_RLatLon0.09_PT076H.grib2 2026-04-26 15:03 386K
20260426T12Z_MSC_RDPS_WindSpeed_IsbL-0010_RLatLon0.09_PT076H.grib2 2026-04-26 15:03 403K
20260426T12Z_MSC_RDPS_WindSpeed_IsbL-0020_RLatLon0.09_PT076H.grib2 2026-04-26 15:03 328K
20260426T12Z_MSC_RDPS_WindSpeed_IsbL-0030_RLatLon0.09_PT076H.grib2 2026-04-26 15:03 323K
20260426T12Z_MSC_RDPS_WindSpeed_IsbL-0050_RLatLon0.09_PT076H.grib2 2026-04-26 15:03 352K
20260426T12Z_MSC_RDPS_WindSpeed_IsbL-0100_RLatLon0.09_PT076H.grib2 2026-04-26 15:03 484K
20260426T12Z_MSC_RDPS_WindSpeed_IsbL-0150_RLatLon0.09_PT076H.grib2 2026-04-26 15:03 385K
20260426T12Z_MSC_RDPS_WindSpeed_IsbL-0175_RLatLon0.09_PT076H.grib2 2026-04-26 15:03 433K
20260426T12Z_MSC_RDPS_WindSpeed_IsbL-0200_RLatLon0.09_PT076H.grib2 2026-04-26 15:03 451K
20260426T12Z_MSC_RDPS_WindSpeed_IsbL-0225_RLatLon0.09_PT076H.grib2 2026-04-26 15:03 457K
20260426T12Z_MSC_RDPS_WindSpeed_IsbL-0250_RLatLon0.09_PT076H.grib2 2026-04-26 15:03 461K
20260426T12Z_MSC_RDPS_WindSpeed_IsbL-0275_RLatLon0.09_PT076H.grib2 2026-04-26 15:03 479K
20260426T12Z_MSC_RDPS_WindSpeed_IsbL-0300_RLatLon0.09_PT076H.grib2 2026-04-26 15:03 475K
20260426T12Z_MSC_RDPS_WindSpeed_IsbL-0350_RLatLon0.09_PT076H.grib2 2026-04-26 15:03 485K
20260426T12Z_MSC_RDPS_WindSpeed_IsbL-0400_RLatLon0.09_PT076H.grib2 2026-04-26 15:03 465K
20260426T12Z_MSC_RDPS_WindSpeed_IsbL-0450_RLatLon0.09_PT076H.grib2 2026-04-26 15:03 465K
20260426T12Z_MSC_RDPS_WindSpeed_IsbL-0500_RLatLon0.09_PT076H.grib2 2026-04-26 15:03 583K
20260426T12Z_MSC_RDPS_WindSpeed_IsbL-0550_RLatLon0.09_PT076H.grib2 2026-04-26 15:03 581K
20260426T12Z_MSC_RDPS_WindSpeed_IsbL-0600_RLatLon0.09_PT076H.grib2 2026-04-26 15:03 588K
20260426T12Z_MSC_RDPS_WindSpeed_IsbL-0650_RLatLon0.09_PT076H.grib2 2026-04-26 15:03 648K
20260426T12Z_MSC_RDPS_WindSpeed_IsbL-0700_RLatLon0.09_PT076H.grib2 2026-04-26 15:03 670K
20260426T12Z_MSC_RDPS_WindSpeed_IsbL-0750_RLatLon0.09_PT076H.grib2 2026-04-26 15:03 699K
20260426T12Z_MSC_RDPS_WindSpeed_IsbL-0800_RLatLon0.09_PT076H.grib2 2026-04-26 15:03 746K
20260426T12Z_MSC_RDPS_WindSpeed_IsbL-0850_RLatLon0.09_PT076H.grib2 2026-04-26 15:03 809K
20260426T12Z_MSC_RDPS_WindSpeed_IsbL-0875_RLatLon0.09_PT076H.grib2 2026-04-26 15:03 832K
20260426T12Z_MSC_RDPS_WindSpeed_IsbL-0900_RLatLon0.09_PT076H.grib2 2026-04-26 15:03 846K
20260426T12Z_MSC_RDPS_WindSpeed_IsbL-0925_RLatLon0.09_PT076H.grib2 2026-04-26 15:03 854K
20260426T12Z_MSC_RDPS_WindSpeed_IsbL-0950_RLatLon0.09_PT076H.grib2 2026-04-26 15:03 850K
20260426T12Z_MSC_RDPS_WindSpeed_IsbL-0970_RLatLon0.09_PT076H.grib2 2026-04-26 15:03 852K
20260426T12Z_MSC_RDPS_WindSpeed_IsbL-0985_RLatLon0.09_PT076H.grib2 2026-04-26 15:03 846K
20260426T12Z_MSC_RDPS_WindSpeed_IsbL-1000_RLatLon0.09_PT076H.grib2 2026-04-26 15:03 842K
20260426T12Z_MSC_RDPS_WindSpeed_IsbL-1015_RLatLon0.09_PT076H.grib2 2026-04-26 15:03 834K
20260426T12Z_MSC_RDPS_WindU_AGL-10m_RLatLon0.09_PT076H.grib2 2026-04-26 15:03 431K
20260426T12Z_MSC_RDPS_WindU_AGL-120m_RLatLon0.09_PT076H.grib2 2026-04-26 15:03 414K
20260426T12Z_MSC_RDPS_WindU_AGL-40m_RLatLon0.09_PT076H.grib2 2026-04-26 15:03 532K
20260426T12Z_MSC_RDPS_WindU_AGL-80m_RLatLon0.09_PT076H.grib2 2026-04-26 15:03 414K
20260426T12Z_MSC_RDPS_WindU_IsbL-0001_RLatLon0.09_PT076H.grib2 2026-04-26 15:03 297K
20260426T12Z_MSC_RDPS_WindU_IsbL-0005_RLatLon0.09_PT076H.grib2 2026-04-26 15:03 289K
20260426T12Z_MSC_RDPS_WindU_IsbL-0010_RLatLon0.09_PT076H.grib2 2026-04-26 15:03 301K
20260426T12Z_MSC_RDPS_WindU_IsbL-0020_RLatLon0.09_PT076H.grib2 2026-04-26 15:03 357K
20260426T12Z_MSC_RDPS_WindU_IsbL-0030_RLatLon0.09_PT076H.grib2 2026-04-26 15:03 315K
20260426T12Z_MSC_RDPS_WindU_IsbL-0050_RLatLon0.09_PT076H.grib2 2026-04-26 15:03 346K
20260426T12Z_MSC_RDPS_WindU_IsbL-0100_RLatLon0.09_PT076H.grib2 2026-04-26 15:03 439K
20260426T12Z_MSC_RDPS_WindU_IsbL-0150_RLatLon0.09_PT076H.grib2 2026-04-26 15:03 401K
20260426T12Z_MSC_RDPS_WindU_IsbL-0175_RLatLon0.09_PT076H.grib2 2026-04-26 15:03 425K
20260426T12Z_MSC_RDPS_WindU_IsbL-0200_RLatLon0.09_PT076H.grib2 2026-04-26 15:03 441K
20260426T12Z_MSC_RDPS_WindU_IsbL-0225_RLatLon0.09_PT076H.grib2 2026-04-26 15:03 347K
20260426T12Z_MSC_RDPS_WindU_IsbL-0250_RLatLon0.09_PT076H.grib2 2026-04-26 15:03 349K
20260426T12Z_MSC_RDPS_WindU_IsbL-0275_RLatLon0.09_PT076H.grib2 2026-04-26 15:03 365K
20260426T12Z_MSC_RDPS_WindU_IsbL-0300_RLatLon0.09_PT076H.grib2 2026-04-26 15:03 463K
20260426T12Z_MSC_RDPS_WindU_IsbL-0350_RLatLon0.09_PT076H.grib2 2026-04-26 15:03 470K
20260426T12Z_MSC_RDPS_WindU_IsbL-0400_RLatLon0.09_PT076H.grib2 2026-04-26 15:03 469K
20260426T12Z_MSC_RDPS_WindU_IsbL-0450_RLatLon0.09_PT076H.grib2 2026-04-26 15:03 469K
20260426T12Z_MSC_RDPS_WindU_IsbL-0500_RLatLon0.09_PT076H.grib2 2026-04-26 15:03 468K
20260426T12Z_MSC_RDPS_WindU_IsbL-0550_RLatLon0.09_PT076H.grib2 2026-04-26 15:03 450K
20260426T12Z_MSC_RDPS_WindU_IsbL-0600_RLatLon0.09_PT076H.grib2 2026-04-26 15:03 457K
20260426T12Z_MSC_RDPS_WindU_IsbL-0650_RLatLon0.09_PT076H.grib2 2026-04-26 15:03 474K
20260426T12Z_MSC_RDPS_WindU_IsbL-0700_RLatLon0.09_PT076H.grib2 2026-04-26 15:03 496K
20260426T12Z_MSC_RDPS_WindU_IsbL-0750_RLatLon0.09_PT076H.grib2 2026-04-26 15:03 522K
20260426T12Z_MSC_RDPS_WindU_IsbL-0800_RLatLon0.09_PT076H.grib2 2026-04-26 15:03 564K
20260426T12Z_MSC_RDPS_WindU_IsbL-0850_RLatLon0.09_PT076H.grib2 2026-04-26 15:03 619K
20260426T12Z_MSC_RDPS_WindU_IsbL-0875_RLatLon0.09_PT076H.grib2 2026-04-26 15:03 639K
20260426T12Z_MSC_RDPS_WindU_IsbL-0900_RLatLon0.09_PT076H.grib2 2026-04-26 15:03 648K
20260426T12Z_MSC_RDPS_WindU_IsbL-0925_RLatLon0.09_PT076H.grib2 2026-04-26 15:03 652K
20260426T12Z_MSC_RDPS_WindU_IsbL-0950_RLatLon0.09_PT076H.grib2 2026-04-26 15:03 646K
20260426T12Z_MSC_RDPS_WindU_IsbL-0970_RLatLon0.09_PT076H.grib2 2026-04-26 15:03 645K
20260426T12Z_MSC_RDPS_WindU_IsbL-0985_RLatLon0.09_PT076H.grib2 2026-04-26 15:03 782K
20260426T12Z_MSC_RDPS_WindU_IsbL-1000_RLatLon0.09_PT076H.grib2 2026-04-26 15:03 780K
20260426T12Z_MSC_RDPS_WindU_IsbL-1015_RLatLon0.09_PT076H.grib2 2026-04-26 15:03 776K
20260426T12Z_MSC_RDPS_WindV_AGL-10m_RLatLon0.09_PT076H.grib2 2026-04-26 15:03 432K
20260426T12Z_MSC_RDPS_WindV_AGL-120m_RLatLon0.09_PT076H.grib2 2026-04-26 15:03 530K
20260426T12Z_MSC_RDPS_WindV_AGL-40m_RLatLon0.09_PT076H.grib2 2026-04-26 15:03 532K
20260426T12Z_MSC_RDPS_WindV_AGL-80m_RLatLon0.09_PT076H.grib2 2026-04-26 15:03 530K
20260426T12Z_MSC_RDPS_WindV_IsbL-0001_RLatLon0.09_PT076H.grib2 2026-04-26 15:03 249K
20260426T12Z_MSC_RDPS_WindV_IsbL-0005_RLatLon0.09_PT076H.grib2 2026-04-26 15:03 289K
20260426T12Z_MSC_RDPS_WindV_IsbL-0010_RLatLon0.09_PT076H.grib2 2026-04-26 15:03 303K
20260426T12Z_MSC_RDPS_WindV_IsbL-0020_RLatLon0.09_PT076H.grib2 2026-04-26 15:03 321K
20260426T12Z_MSC_RDPS_WindV_IsbL-0030_RLatLon0.09_PT076H.grib2 2026-04-26 15:03 318K
20260426T12Z_MSC_RDPS_WindV_IsbL-0050_RLatLon0.09_PT076H.grib2 2026-04-26 15:03 346K
20260426T12Z_MSC_RDPS_WindV_IsbL-0100_RLatLon0.09_PT076H.grib2 2026-04-26 15:03 336K
20260426T12Z_MSC_RDPS_WindV_IsbL-0150_RLatLon0.09_PT076H.grib2 2026-04-26 15:03 398K
20260426T12Z_MSC_RDPS_WindV_IsbL-0175_RLatLon0.09_PT076H.grib2 2026-04-26 15:03 328K
20260426T12Z_MSC_RDPS_WindV_IsbL-0200_RLatLon0.09_PT076H.grib2 2026-04-26 15:03 341K
20260426T12Z_MSC_RDPS_WindV_IsbL-0225_RLatLon0.09_PT076H.grib2 2026-04-26 15:03 371K
20260426T12Z_MSC_RDPS_WindV_IsbL-0250_RLatLon0.09_PT076H.grib2 2026-04-26 15:03 372K
20260426T12Z_MSC_RDPS_WindV_IsbL-0275_RLatLon0.09_PT076H.grib2 2026-04-26 15:03 386K
20260426T12Z_MSC_RDPS_WindV_IsbL-0300_RLatLon0.09_PT076H.grib2 2026-04-26 15:03 384K
20260426T12Z_MSC_RDPS_WindV_IsbL-0350_RLatLon0.09_PT076H.grib2 2026-04-26 15:03 366K
20260426T12Z_MSC_RDPS_WindV_IsbL-0400_RLatLon0.09_PT076H.grib2 2026-04-26 15:03 364K
20260426T12Z_MSC_RDPS_WindV_IsbL-0450_RLatLon0.09_PT076H.grib2 2026-04-26 15:03 468K
20260426T12Z_MSC_RDPS_WindV_IsbL-0500_RLatLon0.09_PT076H.grib2 2026-04-26 15:03 467K
20260426T12Z_MSC_RDPS_WindV_IsbL-0550_RLatLon0.09_PT076H.grib2 2026-04-26 15:03 467K
20260426T12Z_MSC_RDPS_WindV_IsbL-0600_RLatLon0.09_PT076H.grib2 2026-04-26 15:03 473K
20260426T12Z_MSC_RDPS_WindV_IsbL-0650_RLatLon0.09_PT076H.grib2 2026-04-26 15:03 489K
20260426T12Z_MSC_RDPS_WindV_IsbL-0700_RLatLon0.09_PT076H.grib2 2026-04-26 15:03 507K
20260426T12Z_MSC_RDPS_WindV_IsbL-0750_RLatLon0.09_PT076H.grib2 2026-04-26 15:03 531K
20260426T12Z_MSC_RDPS_WindV_IsbL-0800_RLatLon0.09_PT076H.grib2 2026-04-26 15:03 559K
20260426T12Z_MSC_RDPS_WindV_IsbL-0850_RLatLon0.09_PT076H.grib2 2026-04-26 15:03 614K
20260426T12Z_MSC_RDPS_WindV_IsbL-0875_RLatLon0.09_PT076H.grib2 2026-04-26 15:03 633K
20260426T12Z_MSC_RDPS_WindV_IsbL-0900_RLatLon0.09_PT076H.grib2 2026-04-26 15:03 645K
20260426T12Z_MSC_RDPS_WindV_IsbL-0925_RLatLon0.09_PT076H.grib2 2026-04-26 15:03 651K
20260426T12Z_MSC_RDPS_WindV_IsbL-0950_RLatLon0.09_PT076H.grib2 2026-04-26 15:03 785K
20260426T12Z_MSC_RDPS_WindV_IsbL-0970_RLatLon0.09_PT076H.grib2 2026-04-26 15:03 787K
20260426T12Z_MSC_RDPS_WindV_IsbL-0985_RLatLon0.09_PT076H.grib2 2026-04-26 15:03 785K
20260426T12Z_MSC_RDPS_WindV_IsbL-1000_RLatLon0.09_PT076H.grib2 2026-04-26 15:03 781K
20260426T12Z_MSC_RDPS_WindV_IsbL-1015_RLatLon0.09_PT076H.grib2 2026-04-26 15:03 822K